Auburn, AL

2:10 PM CST on November 11, 2019 (GMT -0600)
Auburn-opelika-pitts

Weather History for KAUO - June, 2019

Change the Weather History Date:

Thursday, June 6, 2019

  Actual Average Record
Temperature  
Mean Temperature 72 °F -  
Max Temperature 75 °F - 101 °F (1985)
Min Temperature 69 °F - 53 °F (1968)
Cooling Degree Days 7    
Month to date cooling degree days 80  
Year to date cooling degree days 496  
Since 1 June cooling degree days 80  
Growing Degree Days 22 (Base 50)    
Moisture  
Dew Point 75 °F    
Average Humidity 100    
Maximum Humidity 100    
Minimum Humidity 100    
Precipitation  
Precipitation 0.37 in - 1.15 in (1959)
Month to date precipitation 0.37  
Year to date precipitation 20.83  
Sea Level Pressure  
Sea Level Pressure 29.94 in    
Wind  
Wind Speed 6 mph (ESE)    
Max Wind Speed 12 mph    
Max Gust Speed 21 mph    
Visibility 9 miles    
Events Rain , Thunderstorm    
T = Trace of Precipitation, MM = Missing Value Source: NWS Daily Summary

Daily Weather History Graph

Daily Weather History Graph

Search for Another Location

Airport or City:

Astronomy

Jun. 06, 2019 Rise Set
Actual Time 5:33 AM CDT 7:47 PM CDT
Civil Twilight 5:05 AM CDT 8:15 PM CDT
Nautical Twilight 4:31 AM CDT 8:49 PM CDT
Astronomical Twilight 3:53 AM CDT 9:27 PM CDT
Moon 8:40 AM CDT (6/6) 11:06 PM CDT (6/6)
Length of Visible Light 15h 09m
Length of Day
14h 13m
Waxing Crescent, 14% of the Moon is Illuminated
Jun 6
Waxing Crescent
Jun 10
First Quarter
Jun 17
Full
Jun 25
Last Quarter
Jul 2
New

Hourly Weather History & Observations

Time (CDT) Temp. Dew Point Humidity Pressure Visibility Wind Dir Wind Speed Gust Speed Precip Events Conditions
12:56 AM 75.0 °F - N/A% 29.99 in 10.0 mi NE 3.5 mph - N/A   Overcast
1:56 AM 75.0 °F 75.0 °F 100% 30.00 in 10.0 mi Calm Calm - 0.00 in   Mostly Cloudy
2:56 AM 73.9 °F - N/A% 29.98 in 10.0 mi Calm Calm - N/A   Scattered Clouds
3:56 AM 73.9 °F - N/A% 29.96 in 10.0 mi NNE 4.6 mph - N/A   Mostly Cloudy
4:56 AM 73.0 °F - N/A% 29.97 in 10.0 mi NNW 3.5 mph - 0.00 in Rain Light Rain
5:56 AM 71.1 °F - N/A% 30.00 in 10.0 mi North 6.9 mph - 0.00 in Rain Light Rain
6:56 AM 70.0 °F - N/A% 30.00 in 10.0 mi NNE 10.4 mph - 0.00 in Rain Light Rain
7:56 AM 70.0 °F - N/A% 30.00 in 10.0 mi NNE 9.2 mph - 0.01 in Rain Light Rain
8:56 AM 71.1 °F - N/A% 30.01 in 10.0 mi North 6.9 mph - 0.00 in Rain Light Rain
9:41 AM 71.6 °F - N/A% 29.98 in 1.8 mi Calm Calm - 0.05 in Rain Heavy Rain
9:56 AM 70.0 °F - N/A% 30.01 in 2.0 mi East 5.8 mph - 0.14 in Rain Rain
10:13 AM 71.6 °F - N/A% 29.96 in 6.0 mi NE 8.1 mph - 0.06 in Rain Light Rain
10:56 AM 72.0 °F - N/A% 30.01 in 10.0 mi SE 4.6 mph - 0.06 in   Mostly Cloudy
11:09 AM 71.6 °F - N/A% 29.97 in 10.0 mi East 3.5 mph - N/A   Mostly Cloudy
11:56 AM 73.0 °F - N/A% 30.01 in 10.0 mi East 4.6 mph - N/A   Overcast
12:14 PM 73.4 °F - N/A% 29.97 in 10.0 mi Calm Calm - N/A   Overcast
12:56 PM 73.0 °F - N/A% 30.00 in 7.0 mi East 4.6 mph - 0.01 in Rain Light Rain
1:05 PM 73.4 °F - N/A% 29.96 in 8.0 mi ESE 3.5 mph - 0.00 in Rain Light Rain
1:54 PM 73.4 °F - N/A% 29.96 in 7.0 mi SE 5.8 mph - 0.02 in Rain Light Rain
1:56 PM 73.0 °F - N/A% 29.99 in 8.0 mi SE 5.8 mph - 0.02 in Rain Light Rain
2:27 PM 73.4 °F - N/A% 29.94 in 10.0 mi ESE 4.6 mph - 0.00 in Rain Light Rain
2:56 PM 73.9 °F - N/A% 29.97 in 10.0 mi Variable 4.6 mph - 0.00 in   Scattered Clouds
3:53 PM 73.4 °F - N/A% 29.92 in 10.0 mi ESE 4.6 mph - N/A   Overcast
3:56 PM 73.0 °F - N/A% 29.96 in 10.0 mi SE 5.8 mph - N/A   Overcast
4:31 PM 73.4 °F - N/A% 29.90 in 10.0 mi SE 5.8 mph - 0.00 in Rain Light Rain
4:44 PM 73.4 °F - N/A% 29.90 in 10.0 mi SE 5.8 mph - 0.00 in   Overcast
4:56 PM 73.0 °F - N/A% 29.93 in 10.0 mi SE 5.8 mph - 0.00 in   Overcast
5:32 PM 73.4 °F - N/A% 29.88 in 10.0 mi SE 6.9 mph - N/A   Overcast
5:56 PM 75.0 °F - N/A% 29.91 in 10.0 mi SE 6.9 mph - N/A   Mostly Cloudy
6:54 PM 73.4 °F - N/A% 29.87 in 10.0 mi SSE 6.9 mph - N/A   Overcast
6:56 PM 73.9 °F - N/A% 29.91 in 10.0 mi SSE 6.9 mph - N/A   Overcast
7:49 PM 73.4 °F - N/A% 29.87 in 10.0 mi SE 4.6 mph - N/A   Mostly Cloudy
7:56 PM 73.9 °F - N/A% 29.90 in 10.0 mi SE 5.8 mph - N/A   Mostly Cloudy
8:56 PM 73.9 °F - N/A% 29.90 in 10.0 mi SSE 8.1 mph - N/A   Mostly Cloudy
9:07 PM 73.4 °F - N/A% 29.86 in 10.0 mi SE 9.2 mph - N/A   Mostly Cloudy
9:40 PM 73.4 °F - N/A% 29.87 in 10.0 mi SSE 8.1 mph - N/A   Mostly Cloudy
9:56 PM 73.9 °F - N/A% 29.91 in 10.0 mi SSE 8.1 mph - N/A   Mostly Cloudy
10:18 PM 73.4 °F - N/A% 29.87 in 10.0 mi SSE 10.4 mph - N/A   Mostly Cloudy
10:47 PM 73.4 °F - N/A% 29.87 in 10.0 mi South 12.7 mph - N/A   Overcast
10:56 PM 73.0 °F - N/A% 29.91 in 10.0 mi South 11.5 mph - N/A   Overcast
11:06 PM 73.4 °F - N/A% 29.86 in 10.0 mi South 15.0 mph - N/A   Overcast
11:22 PM 71.6 °F - N/A% 29.86 in 10.0 mi SSE 10.4 mph - 0.00 in Rain , Thunderstorm Light Rain
11:33 PM 71.6 °F - N/A% 29.85 in 10.0 mi SSE 11.5 mph 19.6 mph 0.00 in Rain Light Rain
11:52 PM 71.6 °F - N/A% 29.85 in 6.0 mi SSE 13.8 mph - 0.03 in Rain Rain
11:56 PM 72.0 °F - N/A% 29.88 in 5.0 mi SSE 12.7 mph 20.7 mph 0.04 in Rain Rain